Theta_e
357 354 351 349 350 349 349 355 355 360 358 353 352 348 346 347 347 347 352 362 361 358 359 360 362 364 364 363 363 363 362 361 360 360 360 359 358 356 358 358 357 356 356
348 347 346 349 349 349 355 356 357 352 351 351 353 348 348 347 351 354 352 356 361 360 359 360 361 364 363 363 363 364 365 365 363 361 362 361 361 359 359 358 358 356 356
354 356 350 351 351 355 359 356 354 359 358 353 354 352 346 350 351 349 350 350 357 361 361 361 362 363 364 364 364 364 365 365 365 363 363 361 362 362 360 359 358 358 357
357 357 351 349 353 352 354 365 358 357 354 355 350 349 350 348 350 352 352 352 353 352 359 362 362 363 362 360 362 365 366 366 365 364 363 363 363 363 361 361 360 359 357
355 354 352 354 355 351 363 356 349 351 353 350 349 350 351 348 349 349 349 352 351 354 353 359 361 362 360 362 363 365 366 365 364 364 363 363 363 363 363 361 361 361 360
358 361 353 353 353 364 363 356 355 352 357 353 349 347 351 350 352 351 351 351 352 352 352 356 357 355 361 361 363 365 366 365 364 363 363 362 362 363 363 361 361 361 361
358 362 360 363 360 359 358 355 361 351 349 352 351 346 346 347 349 350 350 349 351 351 352 352 352 355 357 359 361 364 366 366 365 364 364 362 362 362 363 361 360 361 360
359 360 361 363 360 360 357 356 361 354 349 349 353 350 335 342 346 346 347 350 351 352 352 355 354 359 359 356 358 361 363 365 366 366 365 363 362 362 362 360 360 360 359
361 361 363 365 364 364 364 357 357 349 343 346 350 347 343 342 336 341 346 350 352 350 352 353 353 355 358 355 359 362 362 361 363 365 366 365 362 362 362 360 360 359 359
362 362 364 362 365 358 350 351 348 352 348 343 348 351 351 349 346 337 335 340 348 347 349 353 351 353 354 353 358 359 364 359 362 365 365 366 364 363 363 362 361 359 359
363 362 365 365 362 356 356 353 350 357 353 347 345 352 349 343 344 344 330 338 344 348 350 351 351 352 352 353 354 358 357 359 359 361 363 364 365 365 365 364 363 361 361
360 366 364 364 363 358 358 362 355 358 360 359 356 349 345 341 339 338 337 338 349 345 347 349 350 349 352 353 355 359 360 358 357 357 358 361 363 363 366 364 364 363 361
355 363 368 364 362 360 360 359 360 360 358 356 358 358 361 351 347 352 342 337 337 340 345 350 351 352 350 352 352 358 359 355 353 352 353 355 358 361 361 364 365 364 362
356 365 366 365 362 362 360 364 356 354 361 358 357 359 360 355 356 360 353 346 337 341 347 346 351 351 352 352 354 360 353 351 351 349 348 349 351 354 357 358 361 362 361
358 363 363 362 362 362 361 361 355 356 358 357 356 360 355 353 352 353 352 352 347 337 337 346 342 351 356 354 360 359 357 352 349 347 346 346 347 349 351 354 355 356 357
364 360 361 361 361 361 360 359 354 358 354 348 346 354 354 345 345 343 340 341 342 341 336 344 345 351 361 355 359 357 356 354 348 347 345 344 344 346 348 349 350 351 352
360 358 353 349 352 358 359 358 357 352 350 351 350 349 351 354 343 341 340 340 342 342 336 337 341 346 358 358 356 358 359 358 355 344 344 343 342 343 345 345 345 347 347
352 349 351 349 348 351 356 354 353 349 346 345 344 345 342 338 348 347 338 348 343 347 343 343 344 343 349 359 359 356 355 356 356 348 343 342 341 340 340 340 340 341 341
349 352 354 352 345 347 349 347 352 349 345 343 341 343 340 341 343 339 341 338 334 339 341 339 339 343 343 344 352 361 359 358 357 351 342 340 339 339 337 336 335 334 334
349 347 348 347 346 348 347 348 348 345 344 345 343 343 343 344 344 346 341 343 338 336 335 338 336 337 340 346 345 343 346 361 356 354 349 347 345 340 338 334 334 333 330
343 344 344 343 343 345 344 344 346 344 345 345 345 344 343 345 338 338 336 339 342 333 329 328 330 335 335 337 338 338 340 346 353 362 354 354 351 353 350 337 343 338 332
345 345 346 345 345 343 329 330 333 340 340 341 339 343 345 343 341 336 335 334 336 338 336 329 329 331 338 341 338 336 335 335 332 347 356 352 354 352 353 357 345 339 333
340 341 341 341 340 342 326 325 325 331 330 332 334 335 336 336 338 340 337 334 333 332 333 337 336 336 337 342 346 345 344 342 339 341 348 349 358 346 353 349 337 336 334
331 330 331 331 331 330 323 321 320 321 322 326 330 331 332 333 334 333 334 332 335 337 338 336 337 340 343 345 345 343 344 345 344 343 348 340 347 345 354 356 341 335 333
325 325 325 325 325 325 320 319 319 320 319 321 323 327 327 330 326 322 328 327 330 332 329 327 328 328 329 329 332 342 337 333 334 336 342 340 341 344 349 353 356 334 331
323 321 322 324 322 324 320 317 316 316 316 316 323 323 320 322 317 315 324 324 322 325 327 329 330 333 333 337 330 338 339 334 333 330 336 337 337 343 341 350 351 356 351
Wind_Speed
5 7 8 5 6 9 8 3 3 4 8 8 10 8 10 9 10 5 5 18 16 14 15 16 16 15 14 14 14 14 14 13 13 13 13 11 11 11 10 9 8 7 8
5 9 9 5 8 10 3 1 5 7 5 8 8 9 8 9 6 5 4 11 18 17 16 15 15 15 16 14 15 14 15 14 12 13 13 12 12 12 11 11 10 9 8
6 8 7 6 6 8 3 3 5 4 4 8 7 12 9 7 9 11 7 5 11 19 19 19 17 16 17 17 16 15 16 15 13 13 13 13 13 13 13 11 11 11 10
10 7 6 8 8 7 4 5 6 1 2 8 7 4 5 9 5 7 6 9 7 9 17 20 20 19 19 20 19 17 16 16 14 14 14 13 14 14 13 12 12 12 11
10 8 8 7 7 7 1 2 6 3 4 3 7 10 5 4 9 7 12 8 10 6 8 19 22 20 20 20 18 17 18 18 16 15 15 15 15 15 14 13 13 12 12
7 5 9 6 7 3 5 6 7 6 7 8 9 7 9 7 2 11 6 15 11 13 10 10 12 12 21 20 19 18 18 18 17 16 17 16 15 15 15 15 13 13 13
9 7 7 6 7 7 7 5 6 5 7 3 1 5 8 12 10 14 6 8 9 16 10 10 8 10 12 24 22 20 19 18 18 17 17 17 16 16 16 16 14 14 14
9 9 10 7 8 7 9 7 6 2 2 6 5 4 2 6 7 13 9 5 8 4 5 8 9 8 9 8 15 21 20 19 18 17 17 17 17 16 16 17 15 15 14
10 9 10 8 7 7 5 2 4 4 4 4 7 7 4 2 3 7 14 6 6 7 8 9 8 9 11 11 9 17 20 19 19 19 18 18 18 17 16 17 16 16 15
9 9 10 9 5 3 2 5 7 4 7 6 4 10 6 4 2 4 7 13 12 12 7 5 6 11 12 11 14 13 15 17 17 17 17 18 19 18 18 18 17 16 15
9 10 9 8 7 7 8 6 5 8 3 4 6 4 2 1 2 4 3 7 5 14 8 9 9 6 7 12 12 12 16 18 15 14 15 15 18 19 18 17 17 17 16
6 6 8 8 6 6 5 5 5 8 5 5 2 2 4 2 2 3 2 5 8 7 7 16 8 8 7 7 10 5 11 13 15 15 15 15 15 19 20 19 19 19 19
6 9 8 8 6 7 4 3 4 6 5 6 5 5 4 5 8 3 2 5 3 9 7 10 6 6 7 8 9 7 14 15 15 13 12 12 14 14 17 19 18 19 20
7 2 6 6 7 6 5 4 5 5 6 4 6 5 4 6 4 3 4 3 5 7 12 3 15 7 9 9 1 8 5 15 15 14 13 13 12 13 13 15 16 17 18
8 6 6 7 6 5 5 3 5 3 4 5 5 6 6 7 8 7 6 7 7 6 8 12 1 4 17 4 3 1 6 8 15 16 16 15 14 14 14 14 15 15 16
8 3 4 5 5 6 4 5 5 6 2 4 6 8 6 7 9 8 8 7 7 8 12 6 11 9 4 4 7 6 7 5 12 13 15 15 15 16 16 16 16 16 16
6 4 5 4 3 6 5 3 4 2 2 4 5 6 6 6 7 9 9 9 6 7 11 11 10 11 11 9 10 9 7 10 9 19 18 17 16 16 16 17 17 17 17
4 4 7 6 5 5 5 5 7 6 4 5 6 6 6 7 7 8 10 9 10 10 9 12 11 10 10 8 8 8 11 12 9 14 19 18 18 18 17 16 16 17 16
6 6 6 8 9 7 3 3 3 6 5 6 6 6 8 8 7 8 8 10 11 10 12 11 11 9 8 9 7 6 7 10 11 9 16 14 14 16 18 18 17 17 16
1 3 2 3 5 6 5 6 4 7 7 6 7 8 7 9 9 10 9 8 10 11 12 12 11 11 10 8 8 7 9 5 7 12 12 13 17 18 17 17 18 18 18
4 2 1 2 5 6 3 4 8 8 9 7 8 11 12 8 5 7 10 12 10 11 11 12 12 11 11 9 8 7 8 7 7 6 10 10 5 11 11 15 16 19 19
6 4 3 3 4 2 8 11 8 7 9 10 13 13 12 13 13 16 19 19 15 11 12 13 13 14 14 11 9 9 10 10 10 7 9 11 10 9 9 12 20 19 23
3 3 4 5 6 3 8 9 10 9 10 11 12 14 15 14 12 14 14 10 15 19 19 15 16 14 16 14 12 12 10 11 10 9 10 9 7 8 12 12 13 24 22
4 4 6 7 8 7 8 9 10 11 12 12 12 12 13 13 13 13 14 15 14 14 13 11 14 15 15 14 15 13 12 13 11 11 11 12 10 7 14 8 7 17 22
4 5 5 6 7 8 4 2 4 10 12 12 12 12 12 13 12 7 11 16 16 14 14 18 19 18 19 18 16 10 12 11 14 12 11 11 11 12 9 9 7 13 16
4 6 6 7 7 8 6 3 3 9 12 11 12 12 13 13 5 9 10 11 13 15 15 16 17 17 15 17 20 17 13 15 12 12 11 11 9 9 11 10 10 7 6
Wind_Direction
292 246 248 280 300 296 282 285 233 175 251 273 271 227 240 253 267 267 132 164 176 197 222 226 230 230 225 226 230 231 233 232 238 238 241 240 244 243 246 254 254 253 251
228 264 269 267 249 257 243 104 218 264 248 254 271 256 241 251 247 283 259 179 176 188 208 220 228 227 228 230 230 233 238 233 232 242 241 239 241 240 242 243 246 244 245
223 252 264 263 261 248 156 202 269 227 271 281 249 241 230 247 217 232 237 254 184 192 198 209 221 229 233 234 240 237 235 235 230 229 234 235 235 236 238 239 242 240 240
254 255 244 244 238 246 233 216 207 255 213 258 278 256 268 230 203 256 227 236 242 197 197 205 208 221 231 238 242 236 233 231 230 230 229 229 231 231 233 230 235 237 239
224 234 237 235 244 231 111 248 262 181 228 246 261 263 241 275 276 213 238 218 251 242 182 197 209 212 220 230 235 235 230 229 225 227 231 226 225 230 228 228 229 232 233
215 206 242 234 225 271 224 202 214 223 227 241 238 248 291 228 246 298 220 217 216 222 228 161 198 212 214 219 226 230 230 228 227 222 227 230 223 225 224 232 223 231 231
229 215 256 245 228 236 230 248 241 227 277 314 17 242 265 265 241 224 232 245 210 228 240 212 219 224 196 211 213 217 223 228 229 226 222 223 225 224 214 221 227 228 230
229 210 236 236 226 237 230 232 250 204 282 273 267 278 276 278 8 318 236 299 258 231 225 229 224 220 265 192 212 214 218 223 230 230 225 222 222 222 221 213 214 222 229
226 225 226 227 233 247 258 237 237 151 243 311 237 242 228 218 123 257 304 234 276 249 232 242 248 241 233 249 253 203 208 213 224 228 226 222 220 219 219 217 216 217 223
236 238 234 233 215 217 221 235 246 234 214 227 244 268 320 5 317 338 29 315 250 235 274 250 225 219 227 243 236 252 193 208 210 216 220 222 217 217 217 217 220 219 219
224 232 219 223 212 224 196 206 205 233 197 218 229 232 346 351 206 215 242 232 54 304 275 267 246 230 232 212 225 225 200 194 202 211 222 223 219 216 218 220 221 220 221
178 245 231 217 205 252 222 185 200 227 201 225 245 159 218 214 260 230 241 280 289 266 197 248 255 247 226 229 218 217 174 195 200 200 208 222 226 222 216 223 225 225 224
217 186 222 215 212 213 244 267 210 201 222 226 218 235 225 220 249 177 225 261 256 290 245 262 230 248 247 235 242 203 175 184 194 202 206 215 224 228 225 218 222 225 225
273 203 191 222 217 209 217 207 226 237 182 218 241 243 274 261 317 291 255 266 291 274 291 256 256 213 214 250 226 126 270 188 192 192 201 211 220 224 227 227 222 223 227
238 206 204 199 193 215 237 192 229 206 169 220 236 227 233 247 225 209 228 228 233 285 295 302 85 11 315 261 248 268 302 205 193 198 202 204 211 215 218 223 224 223 223
276 229 189 166 170 155 204 216 161 153 186 286 295 22 346 312 329 320 307 283 284 281 284 260 294 313 320 323 258 195 248 269 205 203 200 208 209 212 215 218 222 222 222
303 267 165 106 211 165 172 234 288 209 255 293 309 278 283 308 297 308 307 304 274 269 287 294 297 291 298 304 304 314 276 248 240 202 199 200 203 210 213 214 218 220 222
76 213 217 226 228 199 200 169 277 323 339 285 284 292 288 291 322 293 284 295 315 309 256 277 284 291 284 287 281 293 288 276 275 204 201 199 200 202 207 214 215 216 219
248 284 248 258 225 199 173 293 266 282 302 279 276 292 284 290 285 291 306 299 297 305 304 292 288 275 283 291 255 249 262 282 278 277 201 212 213 211 204 205 212 215 215
282 171 257 311 302 311 334 285 301 274 273 264 278 276 272 272 268 273 277 292 290 291 288 276 269 268 258 257 261 255 262 237 270 287 263 218 199 211 218 212 206 208 213
77 28 332 285 244 267 260 303 265 276 280 289 284 276 271 282 312 279 284 282 286 284 288 289 285 276 268 258 247 264 260 239 260 266 277 280 212 207 216 219 221 214 212
48 21 301 271 261 331 63 48 15 322 307 295 280 280 274 278 265 242 242 248 256 270 272 277 282 283 292 298 283 278 281 285 263 259 267 268 269 260 231 206 201 211 206
12 345 327 324 325 344 72 47 14 319 306 296 294 285 278 275 286 293 290 261 245 237 240 253 262 265 279 288 294 295 283 285 278 270 235 250 279 297 273 261 201 198 198
350 332 329 329 321 314 49 24 354 308 288 280 275 274 280 285 287 288 289 289 288 288 277 259 248 255 257 261 266 267 267 274 271 267 265 270 262 234 259 253 234 209 203
333 334 331 317 309 303 334 284 291 306 297 299 296 291 291 291 299 17 303 289 283 280 287 277 273 274 268 257 246 260 265 257 244 240 223 241 260 271 264 262 263 200 215
358 327 342 320 317 305 291 148 283 317 315 309 305 302 303 283 118 28 302 288 284 282 292 298 308 296 269 259 247 245 249 258 266 261 265 262 248 260 270 255 255 255 220